User: anonymous
Location: Muenchen
(48.1800°N, 11.5800°E)
Time: 17:53:09
(UTC+02:00)
Language:

Tiros 1 - Orbit

View from above orbital plane
View from above orbital plane
View from above satellite
View from above satellite

Ground track
Ground track

The orbit data is extracted from the following two-line orbital elements,

1 00029U 60002B   14110.44956335  .00001155  00000-0  20804-3 0  1952
2 00029 048.3783 121.8649 0024862 329.7424 030.2051 14.73141377886720
Epoch (UTC): 20 April 2014 10:47:22
Eccentricity: 0.0024862
inclination: 48.3783°
perigee height: 633 km
apogee height: 668 km
right ascension of ascending node: 121.8649°
argument of perigee: 329.7424°
revolutions per day: 14.73141377
mean anomaly at epoch: 30.2051°
orbit number at epoch: 88672

The dashed part of the orbit path shows where the satellite is in the earth's shadow,  

DLR